N5CNB Weather Reports


Display with metric or nautical units.
time (UTC)temp
F
wind
direction
speed
MPH
gust
MPH
rain 1hr
in
rain 24hr
in
rain mn
in
humidity
%
barometer
mb
20260905231532 91 146 3.0 12.0 0.00 0.01 0.01 61 1011.5
20260905230030 93 73 7.0 12.0 0.00 0.01 0.01 59 1011.6
20260905224531 93 143 5.0 10.0 0.00 0.01 0.01 56 1011.3
20260905223032 95 75 2.0 4.0 0.00 0.01 0.01 51 1011.2
20260905221520 96 196 2.0 6.0 0.00 0.01 0.01 50 1011.2
20260905220030 95 160 5.0 7.0 0.00 0.01 0.01 49 1011.1
20260905214532 95 111 2.0 5.0 0.00 0.01 0.01 51 1011.5
20260905213035 94 122 2.0 7.0 0.00 0.01 0.01 53 1011.7
20260905211535 93 139 5.0 9.0 0.00 0.01 0.01 54 1011.7
20260905210019 93 110 5.0 13.0 0.00 0.01 0.01 56 1011.8
20260905204527 93 103 4.0 9.0 0.00 0.01 0.01 60 1012.0
20260905203031 94 94 2.0 6.0 0.00 0.01 0.01 57 1012.1
20260905201534 96 87 1.0 6.0 0.00 0.02 0.01 56 1012.3
20260905200006 95 165 3.0 6.0 0.00 0.02 0.01 55 1012.7
20260905194507 94 240 5.0 7.0 0.00 0.03 0.01 56 1012.9
20260905193004 93 245 1.0 4.0 0.00 0.07 0.01 63 1013.2
20260905191506 91 256 0.0 3.0 0.00 0.16 0.01 58 1013.3
20260905190019 89 237 0.0 2.0 0.00 0.21 0.01 63 1013.6
20260905184512 88 91 1.0 7.0 0.00 0.21 0.01 65 1013.7
20260905183013 87 129 4.0 8.0 0.00 0.21 0.01 65 1013.9
20260905181506 87 89 5.0 12.0 0.00 0.21 0.01 71 1014.1
20260905180011 92 98 11.0 16.0 0.00 0.21 0.01 61 1014.6
20260905174510 97 248 0.0 3.0 0.00 0.21 0.01 55 1014.5
20260905173009 96 203 2.0 4.0 0.00 0.21 0.01 52 1014.7
20260905171511 95 256 1.0 6.0 0.00 0.21 0.01 56 1014.9
20260905170009 93 153 3.0 7.0 0.00 0.21 0.01 59 1015.1
20260905164507 93 288 1.0 4.0 0.00 0.21 0.01 64 1015.2
20260905163013 91 172 2.0 6.0 0.00 0.21 0.01 65 1015.2
20260905161522 90 138 3.0 6.0 0.00 0.21 0.01 69 1015.2
20260905160013 91 220 3.0 6.0 0.00 0.21 0.01 67 1015.2
20260905154506 89 259 1.0 6.0 0.00 0.21 0.01 71 1015.3
20260905153011 88 256 0.0 5.0 0.00 0.21 0.01 74 1015.2
20260905151513 88 265 2.0 5.0 0.00 0.21 0.01 77 1015.1
20260905150014 86 270 1.0 6.0 0.00 0.21 0.01 80 1015.2
20260905144519 85 110 2.0 5.0 0.00 0.21 0.01 84 1015.3
20260905143006 85 124 2.0 6.0 0.00 0.21 0.01 83 1015.2
20260905141515 85 100 0.0 3.0 0.00 0.21 0.01 84 1015.3
20260905140020 83 176 0.0 0.0 0.00 0.21 0.01 87 1015.2
20260905134515 80 88 0.0 0.0 0.01 0.21 0.01 91 1015.2
20260905133024 79 69 0.0 0.0 0.01 0.21 0.01 91 1015.2
20260905131508 77 65 0.0 0.0 0.01 0.21 0.01 92 1015.0
20260905130016 76 64 0.0 0.0 0.01 0.21 0.01 93 1014.9
20260905124520 75 169 0.0 0.0 0.00 0.20 0.00 93 1014.6
20260905123020 74 169 0.0 0.0 0.00 0.20 0.00 93 1014.4
20260905121523 73 169 0.0 0.0 0.00 0.20 0.00 93 1014.2
20260905120033 73 169 0.0 0.0 0.00 0.20 0.00 92 1014.0
20260905114519 73 169 0.0 0.0 0.00 0.20 0.00 92 1013.9
20260905113022 73 169 0.0 0.0 0.00 0.20 0.00 92 1013.8
20260905111535 73 169 0.0 0.0 0.00 0.20 0.00 92 1013.7
20260905110019 73 169 0.0 0.0 0.00 0.20 0.00 92 1013.7
20260905104516 73 169 0.0 0.0 0.00 0.20 0.00 92 1013.7
20260905103029 74 169 0.0 0.0 0.00 0.20 0.00 92 1013.6
20260905101528 74 169 0.0 0.0 0.00 0.20 0.00 92 1013.7
20260905100007 74 169 0.0 0.0 0.00 0.20 0.00 92 1013.6
20260905094515 74 169 0.0 0.0 0.00 0.20 0.00 92 1013.6
20260905093023 74 169 0.0 0.0 0.00 0.20 0.00 92 1013.5
20260905091525 74 169 0.0 0.0 0.00 0.20 0.00 92 1013.6
20260905090026 74 169 0.0 0.0 0.00 0.20 0.00 92 1013.5
20260905084509 74 169 0.0 0.0 0.00 0.20 0.00 91 1013.6
20260905083013 74 169 0.0 0.0 0.00 0.20 0.00 91 1013.7
20260905081521 75 169 0.0 0.0 0.00 0.20 0.00 91 1013.6
20260905080031 75 169 0.0 0.0 0.00 0.20 0.00 91 1013.6
20260905074528 75 169 0.0 0.0 0.00 0.20 0.00 91 1013.7
20260905073009 75 169 0.0 0.0 0.00 0.20 0.00 91 1013.8
20260905071516 75 169 0.0 0.0 0.00 0.20 0.00 90 1013.9
20260905070043 75 169 0.0 0.0 0.00 0.20 0.00 90 1014.1
20260905064540 76 169 0.0 0.0 0.00 0.20 0.00 90 1014.1
20260905063029 76 169 0.0 0.0 0.00 0.20 0.00 90 1014.2
20260905061511 76 169 0.0 0.0 0.00 0.20 0.00 89 1014.1
20260905060023 77 169 0.0 0.0 0.00 0.20 0.00 89 1014.2
20260905054534 77 169 0.0 0.0 0.00 0.20 0.00 89 1014.1
20260905053031 77 155 0.0 0.0 0.00 0.20 0.00 88 1014.1
20260905051541 77 155 0.0 0.0 0.00 0.20 0.00 88 1014.0
20260905050014 78 79 0.0 0.0 0.00 0.20 0.00 87 1014.2
20260905044521 78 79 0.0 0.0 0.00 0.20 0.20 87 1014.3
20260905043030 78 143 0.0 0.0 0.00 0.20 0.20 87 1014.4
20260905041505 79 141 0.0 3.0 0.00 0.20 0.20 86 1014.4
20260905040019 79 155 0.0 2.0 0.00 0.20 0.20 86 1014.4
20260905034525 79 169 1.0 3.0 0.00 0.20 0.20 85 1014.4
20260905033027 80 136 0.0 2.0 0.00 0.20 0.20 84 1014.5
20260905031528 80 122 0.0 4.0 0.00 0.20 0.20 84 1014.4
20260905030010 80 122 2.0 8.0 0.00 0.20 0.20 83 1014.3
20260905024512 80 151 1.0 6.0 0.00 0.20 0.20 83 1014.3
20260905023019 79 79 2.0 4.0 0.00 0.20 0.20 85 1014.0
20260905021535 79 72 0.0 0.0 0.00 0.20 0.20 87 1013.7
20260905020031 80 72 0.0 0.0 0.00 0.20 0.20 86 1013.6
20260905014509 80 72 0.0 0.0 0.00 0.20 0.20 85 1013.3
20260905013014 81 70 0.0 0.0 0.00 0.20 0.20 85 1013.1
20260905011518 81 88 0.0 0.0 0.00 0.20 0.20 83 1013.2
20260905010030 82 78 0.0 0.0 0.00 0.20 0.20 83 1013.1
20260905004531 83 84 0.0 2.0 0.00 0.20 0.20 81 1012.8
20260905003008 85 91 0.0 3.0 0.00 0.20 0.20 79 1012.7
20260905001512 86 149 0.0 4.0 0.00 0.20 0.20 77 1012.7
20260905000019 87 139 1.0 6.0 0.00 0.20 0.20 76 1012.5
20260904234526 87 137 2.0 6.0 0.00 0.20 0.20 75 1012.6
20260904233031 88 188 4.0 8.0 0.00 0.20 0.20 74 1012.7